EW5139 Weather Reports


time (UTC)temp
C
wind
direction
speed
KPH
gust
KPH
rain 1hr
cm
rain 24hr
cm
rain mn
cm
humidity
%
barometer
mb
20260902231405 34 145 0.0 3.2 0.00 0.00 0.00 60 1014.6
20260902230905 34 218 0.0 4.8 0.00 0.00 0.00 60 1014.7
20260902230405 34 319 0.0 9.7 0.00 0.00 0.00 60 1014.8
20260902225905 34 273 1.6 4.8 0.00 0.00 0.00 59 1014.8
20260902224905 34 318 0.0 4.8 0.00 0.00 0.00 59 1014.8
20260902224405 35 282 1.6 4.8 0.00 0.00 0.00 58 1014.8
20260902223906 34 249 0.0 9.7 0.00 0.00 0.00 58 1014.7
20260902223405 35 298 3.2 4.8 0.00 0.00 0.00 57 1014.7
20260902222904 35 275 0.0 4.8 0.00 0.00 0.00 57 1014.6
20260902222405 35 263 1.6 12.9 0.00 0.00 0.00 56 1014.6
20260902221905 35 199 1.6 4.8 0.00 0.00 0.00 58 1014.7
20260902221405 35 312 1.6 4.8 0.00 0.00 0.00 57 1014.8
20260902220905 35 342 0.0 4.8 0.00 0.00 0.00 57 1014.8
20260902220405 35 321 1.6 8.0 0.00 0.00 0.00 57 1014.9
20260902215905 35 304 0.0 3.2 0.00 0.00 0.00 57 1015.0
20260902215405 35 44 1.6 8.0 0.00 0.00 0.00 57 1015.2
20260902213904 35 329 3.2 9.7 0.00 0.00 0.00 57 1015.0
20260902212905 35 0 3.2 9.7 0.00 0.00 0.00 57 1015.0
20260902212404 35 346 4.8 9.7 0.00 0.00 0.00 56 1015.1
20260902211904 35 294 1.6 8.0 0.00 0.00 0.00 58 1015.1
20260902211405 35 169 1.6 4.8 0.00 0.00 0.00 57 1015.2
20260902210404 35 318 3.2 9.7 0.00 0.00 0.00 57 1015.2
20260902205404 35 215 0.0 8.0 0.00 0.00 0.00 58 1015.3
20260902204404 35 42 1.6 9.7 0.00 0.00 0.00 57 1015.3
20260902203904 35 309 1.6 4.8 0.00 0.00 0.00 56 1015.3
20260902203404 35 226 3.2 9.7 0.00 0.00 0.00 57 1015.3
20260902202905 35 73 3.2 12.9 0.00 0.00 0.00 57 1015.2
20260902202405 35 328 3.2 8.0 0.00 0.00 0.00 56 1015.3
20260902201904 35 350 3.2 12.9 0.00 0.00 0.00 57 1015.3
20260902201405 35 30 1.6 4.8 0.00 0.00 0.00 57 1015.3
20260902200904 35 310 3.2 9.7 0.00 0.00 0.00 56 1015.3
20260902195404 35 308 3.2 9.7 0.00 0.00 0.00 56 1015.5
20260902194905 35 266 1.6 4.8 0.00 0.00 0.00 57 1015.6
20260902194404 35 322 0.0 4.8 0.00 0.00 0.00 57 1015.6
20260902193904 35 340 1.6 4.8 0.00 0.00 0.00 57 1015.9
20260902192405 35 18 1.6 4.8 0.00 0.00 0.00 55 1016.0
20260902191904 35 239 1.6 3.2 0.00 0.00 0.00 56 1016.2
20260902191405 35 139 0.0 1.6 0.00 0.00 0.00 56 1016.0
20260902190905 35 247 1.6 8.0 0.00 0.00 0.00 57 1016.1
20260902185404 35 356 1.6 14.5 0.00 0.00 0.00 57 1016.1
20260902184904 34 332 1.6 4.8 0.00 0.00 0.00 58 1016.3
20260902184404 34 232 3.2 12.9 0.00 0.00 0.00 57 1016.3
20260902183904 34 300 1.6 4.8 0.00 0.00 0.00 56 1016.3
20260902183404 34 218 3.2 8.0 0.00 0.00 0.00 57 1016.3
20260902182904 34 187 1.6 4.8 0.00 0.00 0.00 59 1016.3
20260902182404 34 316 4.8 9.7 0.00 0.00 0.00 58 1016.2
20260902180404 34 335 1.6 8.0 0.00 0.00 0.00 59 1016.4
20260902175904 34 267 0.0 4.8 0.00 0.00 0.00 60 1016.4
20260902175404 34 11 0.0 4.8 0.00 0.00 0.00 62 1016.5
20260902174904 33 298 3.2 9.7 0.00 0.00 0.00 61 1016.5
20260902173404 33 217 0.0 11.3 0.00 0.00 0.00 62 1016.8
20260902172903 33 332 4.8 14.5 0.00 0.00 0.00 62 1016.8
20260902172404 33 277 1.6 8.0 0.00 0.00 0.00 63 1016.8
20260902171904 33 324 4.8 11.3 0.00 0.00 0.00 62 1016.9
20260902171404 33 343 3.2 8.0 0.00 0.00 0.00 62 1017.0
20260902170903 33 302 1.6 4.8 0.00 0.00 0.00 63 1017.0
20260902170404 33 353 3.2 8.0 0.00 0.00 0.00 62 1017.1
20260902165904 33 208 3.2 8.0 0.00 0.00 0.00 61 1017.0
20260902164904 33 337 1.6 8.0 0.00 0.00 0.00 62 1017.2
20260902164404 33 321 3.2 11.3 0.00 0.00 0.00 62 1017.2
20260902163404 33 338 4.8 14.5 0.00 0.00 0.00 62 1017.3
20260902162903 33 139 0.0 4.8 0.00 0.00 0.00 64 1017.2
20260902162404 33 281 3.2 9.7 0.00 0.00 0.00 64 1017.2
20260902161903 33 358 3.2 12.9 0.00 0.00 0.00 65 1017.2
20260902161404 32 0 0.0 3.2 0.00 0.00 0.00 66 1017.2
20260902160904 32 290 3.2 4.8 0.00 0.00 0.00 65 1017.3
20260902160403 32 311 3.2 9.7 0.00 0.00 0.00 67 1017.3
20260902155903 32 75 0.0 4.8 0.00 0.00 0.00 67 1017.3
20260902155403 32 44 1.6 4.8 0.00 0.00 0.00 68 1017.4
20260902154903 32 302 1.6 4.8 0.00 0.00 0.00 67 1017.5
20260902154403 32 297 1.6 4.8 0.00 0.00 0.00 69 1017.5
20260902153903 31 199 0.0 4.8 0.00 0.00 0.00 70 1017.5
20260902153403 31 349 1.6 4.8 0.00 0.00 0.00 69 1017.6
20260902152903 31 348 1.6 9.7 0.00 0.00 0.00 70 1017.7
20260902152404 31 300 1.6 4.8 0.00 0.00 0.00 70 1017.6
20260902151904 31 148 0.0 3.2 0.00 0.00 0.00 71 1017.7
20260902151403 31 356 3.2 8.0 0.00 0.00 0.00 71 1017.7
20260902150404 30 342 3.2 4.8 0.00 0.00 0.00 71 1017.7
20260902145908 30 350 1.6 9.7 0.00 0.00 0.00 71 1017.8
20260902145407 30 126 0.0 4.8 0.00 0.00 0.00 72 1017.8
20260902144408 30 282 1.6 4.8 0.00 0.00 0.00 75 1017.7
20260902143908 30 297 1.6 4.8 0.00 0.00 0.00 74 1017.7
20260902143407 30 264 1.6 4.8 0.00 0.00 0.00 75 1017.8
20260902142908 29 123 0.0 4.8 0.00 0.00 0.00 75 1017.7
20260902142407 29 331 1.6 4.8 0.00 0.00 0.00 75 1017.6
20260902141408 29 309 0.0 4.8 0.00 0.00 0.00 76 1017.7
20260902140908 28 271 1.6 4.8 0.00 0.00 0.00 77 1017.7
20260902135908 28 5 1.6 4.8 0.00 0.00 0.00 76 1017.7
20260902135407 28 38 0.0 3.2 0.00 0.00 0.00 77 1017.7
20260902134907 28 302 1.6 4.8 0.00 0.00 0.00 77 1017.7
20260902134407 28 5 0.0 3.2 0.00 0.00 0.00 77 1017.7
20260902133908 28 1 1.6 8.0 0.00 0.00 0.00 78 1017.7
20260902132908 28 68 0.0 4.8 0.00 0.00 0.00 78 1017.7
20260902132408 28 119 0.0 1.6 0.00 0.00 0.00 79 1017.7
20260902131407 27 97 0.0 0.0 0.00 0.00 0.00 81 1017.7
20260902130907 27 97 0.0 1.6 0.00 0.00 0.00 81 1017.7
20260902130408 27 99 0.0 1.6 0.00 0.00 0.00 82 1017.7
20260902125908 27 314 0.0 1.6 0.00 0.00 0.00 83 1017.7
20260902125408 26 305 0.0 0.0 0.00 0.00 0.00 84 1017.6
20260902124907 26 304 0.0 0.0 0.00 0.00 0.00 86 1017.6
20260902124407 26 304 0.0 0.0 0.00 0.00 0.00 87 1017.6
20260902123908 26 304 0.0 0.0 0.00 0.00 0.00 87 1017.6
20260902123407 25 304 0.0 0.0 0.00 0.00 0.00 89 1017.6
20260902122907 25 304 0.0 0.0 0.00 0.00 0.00 89 1017.6
20260902122407 25 304 0.0 0.0 0.00 0.00 0.00 90 1017.6
20260902121407 23 304 0.0 1.6 0.00 0.00 0.00 92 1017.4
20260902120907 23 293 0.0 1.6 0.00 0.00 0.00 94 1017.5
20260902115907 23 293 0.0 0.0 0.00 0.00 0.00 95 1017.4
20260902115407 22 293 0.0 0.0 0.00 0.00 0.00 96 1017.3
20260902113907 22 293 0.0 0.0 0.00 0.00 0.00 96 1017.2
20260902113407 22 293 0.0 0.0 0.00 0.00 0.00 96 1017.1
20260902112407 22 293 0.0 0.0 0.00 0.00 0.00 95 1017.0
20260902111407 22 293 0.0 0.0 0.00 0.00 0.00 95 1016.9
20260902110907 22 293 0.0 0.0 0.00 0.00 0.00 95 1016.8
20260902110407 22 293 0.0 0.0 0.00 0.00 0.00 95 1016.9
20260902105908 22 293 0.0 0.0 0.00 0.00 0.00 95 1016.9
20260902105407 22 293 0.0 0.0 0.00 0.00 0.00 94 1016.9
20260902104407 22 293 0.0 0.0 0.00 0.00 0.00 94 1016.8
20260902103907 22 293 0.0 0.0 0.00 0.00 0.00 94 1016.9
20260902102907 22 293 0.0 0.0 0.00 0.00 0.00 94 1016.8
20260902102407 22 293 0.0 0.0 0.00 0.00 0.00 94 1016.8
20260902101907 22 293 0.0 0.0 0.00 0.00 0.00 94 1016.8
20260902101407 22 293 0.0 0.0 0.00 0.00 0.00 94 1016.7
20260902100906 22 293 0.0 0.0 0.00 0.00 0.00 94 1016.9
20260902095907 22 293 0.0 0.0 0.00 0.00 0.00 94 1016.7
20260902094907 22 293 0.0 0.0 0.00 0.00 0.00 93 1016.8
20260902093906 23 293 0.0 0.0 0.00 0.00 0.00 93 1016.8
20260902093406 23 293 0.0 0.0 0.00 0.00 0.00 93 1016.8
20260902092906 23 293 0.0 0.0 0.00 0.00 0.00 92 1016.8
20260902091907 23 293 0.0 0.0 0.00 0.00 0.00 92 1016.7
20260902091406 23 293 0.0 0.0 0.00 0.00 0.00 93 1016.7
20260902090907 23 293 0.0 0.0 0.00 0.00 0.00 93 1016.7
20260902090407 23 293 0.0 0.0 0.00 0.00 0.00 93 1016.7
20260902085906 23 293 0.0 0.0 0.00 0.00 0.00 93 1016.6
20260902085406 23 293 0.0 0.0 0.00 0.00 0.00 93 1016.5
20260902084906 23 293 0.0 0.0 0.00 0.00 0.00 92 1016.5
20260902084406 23 293 0.0 0.0 0.00 0.00 0.00 92 1016.4
20260902083906 23 293 0.0 0.0 0.00 0.00 0.00 92 1016.4
20260902083407 23 293 0.0 0.0 0.00 0.00 0.00 92 1016.2
20260902082907 23 293 0.0 0.0 0.00 0.00 0.00 92 1016.2
20260902082406 23 293 0.0 0.0 0.00 0.00 0.00 92 1016.2
20260902081906 23 293 0.0 0.0 0.00 0.00 0.00 92 1016.2
20260902081406 23 293 0.0 0.0 0.00 0.00 0.00 92 1016.2
20260902080907 23 293 0.0 0.0 0.00 0.00 0.00 91 1016.1
20260902080407 23 293 0.0 0.0 0.00 0.00 0.00 91 1016.1
20260902075907 23 293 0.0 0.0 0.00 0.00 0.00 90 1016.1
20260902075407 23 293 0.0 0.0 0.00 0.00 0.00 90 1016.1
20260902074906 23 293 0.0 0.0 0.00 0.00 0.00 90 1016.1
20260902074406 23 293 0.0 0.0 0.00 0.00 0.00 90 1016.1
20260902073906 23 293 0.0 0.0 0.00 0.00 0.00 90 1016.1
20260902072407 23 293 0.0 0.0 0.00 0.00 0.00 90 1016.0
20260902071906 24 293 0.0 0.0 0.00 0.00 0.00 90 1016.1
20260902071406 24 293 0.0 0.0 0.00 0.00 0.00 89 1016.0
20260902070907 24 293 0.0 0.0 0.00 0.00 0.00 89 1016.0
20260902070407 24 293 0.0 0.0 0.00 0.00 0.00 89 1016.0
20260902065906 24 293 0.0 0.0 0.00 0.00 0.00 89 1016.0
20260902065406 24 293 0.0 0.0 0.00 0.00 0.00 88 1016.1
20260902064906 24 293 0.0 0.0 0.00 0.00 0.00 88 1016.0
20260902064407 24 293 0.0 0.0 0.00 0.00 0.00 88 1016.0
20260902063906 24 293 0.0 0.0 0.00 0.00 0.00 87 1016.0
20260902063407 25 293 0.0 0.0 0.00 0.00 0.00 87 1015.9
20260902062906 25 293 0.0 0.0 0.00 0.00 0.00 87 1015.9
20260902062406 25 293 0.0 0.0 0.00 0.00 0.00 87 1016.0
20260902061906 25 293 0.0 0.0 0.00 0.00 0.00 87 1016.0
20260902061407 25 293 0.0 0.0 0.00 0.00 0.00 86 1016.0
20260902060907 25 293 0.0 0.0 0.00 0.00 0.00 86 1016.0
20260902060407 25 293 0.0 0.0 0.00 0.00 0.00 86 1016.0
20260902055906 25 293 0.0 0.0 0.00 0.00 0.00 86 1016.0
20260902055406 25 293 0.0 0.0 0.00 0.00 0.00 86 1016.1
20260902054906 25 293 0.0 0.0 0.00 0.00 0.00 85 1016.0
20260902054406 25 293 0.0 0.0 0.00 0.00 0.00 85 1016.0
20260902053906 25 293 0.0 0.0 0.00 0.00 0.00 85 1016.1
20260902053406 25 293 0.0 0.0 0.00 0.00 0.00 85 1016.1
20260902052906 25 293 0.0 0.0 0.00 0.00 0.00 85 1016.1
20260902052406 25 293 0.0 0.0 0.00 0.00 0.00 85 1016.1
20260902051906 25 293 0.0 0.0 0.00 0.00 0.00 85 1016.1
20260902051405 25 293 0.0 0.0 0.00 0.00 0.00 84 1016.1
20260902050906 25 293 0.0 0.0 0.00 0.00 0.00 84 1016.1
20260902050406 25 293 0.0 0.0 0.00 0.00 0.00 83 1016.1
20260902045906 25 293 0.0 0.0 0.00 0.00 0.00 83 1016.1
20260902045406 26 293 0.0 0.0 0.00 0.00 0.00 83 1016.1
20260902044906 26 293 0.0 0.0 0.00 0.00 0.00 83 1016.1
20260902043406 26 293 0.0 0.0 0.00 0.00 0.00 82 1016.0
20260902042905 26 293 0.0 0.0 0.00 0.00 0.00 82 1016.0
20260902042405 26 293 0.0 0.0 0.00 0.00 0.00 81 1016.0
20260902041906 26 293 0.0 0.0 0.00 0.00 0.00 81 1016.0
20260902041406 26 293 0.0 0.0 0.00 0.00 0.00 81 1016.1
20260902040906 26 293 0.0 0.0 0.00 0.00 0.00 81 1016.1
20260902040405 26 293 0.0 0.0 0.00 0.00 0.00 80 1016.1
20260902034405 26 293 0.0 0.0 0.00 0.00 0.00 80 1016.1
20260902033906 27 293 0.0 0.0 0.00 0.00 0.00 79 1016.1
20260902032906 27 293 0.0 0.0 0.00 0.00 0.00 79 1016.1
20260902032405 27 293 0.0 0.0 0.00 0.00 0.00 79 1016.1
20260902031905 27 293 0.0 0.0 0.00 0.00 0.00 78 1016.0
20260902031406 27 293 0.0 0.0 0.00 0.00 0.00 78 1016.0
20260902030906 27 293 0.0 0.0 0.00 0.00 0.00 78 1016.1
20260902030406 27 293 0.0 0.0 0.00 0.00 0.00 78 1016.1
20260902025905 27 293 0.0 0.0 0.00 0.00 0.00 78 1016.1
20260902025405 27 293 0.0 0.0 0.00 0.00 0.00 77 1016.1
20260902024906 27 293 0.0 0.0 0.00 0.00 0.00 77 1016.1
20260902024405 27 293 0.0 0.0 0.00 0.00 0.00 77 1016.1
20260902023906 27 293 0.0 0.0 0.00 0.00 0.00 77 1016.1
20260902023406 27 293 0.0 0.0 0.00 0.00 0.00 76 1016.1
20260902022906 27 293 0.0 0.0 0.00 0.00 0.00 76 1016.1
20260902022406 27 293 0.0 0.0 0.00 0.00 0.00 76 1016.1
20260902021406 27 293 0.0 0.0 0.00 0.00 0.00 76 1016.0
20260902020406 27 293 0.0 0.0 0.00 0.00 0.00 76 1016.0
20260902015905 27 293 0.0 0.0 0.00 0.00 0.00 76 1016.0
20260902015406 27 293 0.0 0.0 0.00 0.00 0.00 76 1015.9
20260902014905 27 293 0.0 0.0 0.00 0.00 0.00 76 1015.9
20260902013406 28 293 0.0 0.0 0.00 0.00 0.00 75 1015.8
20260902012905 28 293 0.0 0.0 0.00 0.00 0.00 75 1015.8
20260902012405 28 293 0.0 0.0 0.00 0.00 0.00 74 1015.8
20260902011905 28 293 0.0 0.0 0.00 0.00 0.00 73 1015.7
20260902011405 28 293 0.0 0.0 0.00 0.00 0.00 72 1015.6
20260902010905 28 293 0.0 0.0 0.00 0.00 0.00 71 1015.6
20260902010405 29 293 0.0 0.0 0.00 0.00 0.00 70 1015.5
20260902005906 29 293 0.0 0.0 0.00 0.00 0.00 70 1015.5
20260902005405 29 293 0.0 0.0 0.00 0.00 0.00 70 1015.5
20260902004906 30 293 0.0 0.0 0.00 0.00 0.00 68 1015.4
20260902004405 30 293 0.0 0.0 0.00 0.00 0.00 68 1015.4
20260902003905 30 293 0.0 0.0 0.00 0.00 0.00 67 1015.4
20260902003405 30 293 0.0 0.0 0.00 0.00 0.00 67 1015.5
20260902002906 30 293 0.0 1.6 0.00 0.00 0.00 66 1015.5
20260902001905 30 21 0.0 0.0 0.00 0.00 0.00 65 1015.4
20260902001405 31 21 0.0 1.6 0.00 0.00 0.00 65 1015.5
20260902000406 31 312 0.0 0.0 0.00 0.00 0.00 63 1015.6
20260901235905 31 304 0.0 0.0 0.00 0.00 0.00 63 1015.6
20260901235405 31 304 0.0 0.0 0.00 0.00 0.00 62 1015.6
20260901234905 32 304 0.0 0.0 0.00 0.00 0.00 61 1015.6
20260901234405 32 304 0.0 0.0 0.00 0.00 0.00 60 1015.6
20260901233905 32 304 0.0 1.6 0.00 0.00 0.00 59 1015.7
20260901233404 33 293 0.0 1.6 0.00 0.00 0.00 57 1015.6
20260901232905 33 244 0.0 1.6 0.00 0.00 0.00 56 1015.7
20260901232405 34 264 0.0 0.0 0.00 0.00 0.00 55 1015.7
20260901231906 35 15 0.0 0.0 0.00 0.00 0.00 55 1015.7